User: anonymous   Login
Location: Unspecified
(37.6100°N, 2.7800°W)
Time: 08:44:32
(UTC+00:00)
Language:

Envisat - Orbit

View from above orbital plane
View from above orbital plane
View from above satellite
View from above satellite

Ground track
Ground track

The orbit data is extracted from the following two-line orbital elements,

1 27386U 02009A   19019.15079052  .00000011  00000-0  17275-4 0  9994
2 27386  98.1632  47.7688 0001173  88.7185 294.4060 14.37939359884565
Epoch (UTC): 19 January 2019 03:37:08
Eccentricity: 0.0001173
inclination: 98.1632°
perigee height: 764 km
apogee height: 766 km
right ascension of ascending node: 47.7688°
argument of perigee: 88.7185°
revolutions per day: 14.37939359
mean anomaly at epoch: 294.4060°
orbit number at epoch: 88456

The dashed part of the orbit path shows where the satellite is in the earth's shadow,  

DLR